www.mmschreiber.de
Wetterdaten: aktuell Samstag, 21.05.2022 23:30
Datum Zeit Temp. Out Temp. Wind Feuchte Out Luftdruck Regen Wind Windben
21.05.2022 23:30 12,1 C 26,2 C 74 % 1021,4 hPa 0,0 mm 0,0 km/h 0,0 km/h
21.05.2022 23:20 12,3 C 26,2 C 74 % 1021,3 hPa 0,0 mm 0,0 km/h 0,0 km/h
21.05.2022 23:10 12,7 C 26,2 C 72 % 1021,3 hPa 0,0 mm 0,0 km/h 0,0 km/h
21.05.2022 23:00 12,8 C 26,2 C 72 % 1021,5 hPa 0,0 mm 0,0 km/h 0,0 km/h
21.05.2022 22:50 13,2 C 26,2 C 71 % 1021,5 hPa 0,0 mm 0,0 km/h 0,0 km/h
21.05.2022 22:40 13,4 C 26,2 C 70 % 1021,6 hPa 0,0 mm 0,0 km/h 0,0 km/h
21.05.2022 22:30 13,8 C 26,2 C 68 % 1021,6 hPa 0,0 mm 0,0 km/h 0,0 km/h
21.05.2022 22:20 14,0 C 26,2 C 67 % 1021,4 hPa 0,0 mm 0,0 km/h 0,0 km/h
21.05.2022 22:10 14,3 C 26,2 C 65 % 1021,4 hPa 0,0 mm 0,0 km/h 0,0 km/h
21.05.2022 22:00 14,6 C 26,2 C 64 % 1021,5 hPa 0,0 mm 0,0 km/h 0,0 km/h
21.05.2022 21:50 14,9 C 26,2 C 63 % 1021,5 hPa 0,0 mm 0,0 km/h 0,0 km/h
21.05.2022 21:40 15,2 C 26,2 C 63 % 1021,4 hPa 0,0 mm 0,0 km/h 0,0 km/h
21.05.2022 21:30 15,3 C 26,2 C 62 % 1021,4 hPa 0,0 mm 0,0 km/h 0,0 km/h
21.05.2022 21:20 15,6 C 26,2 C 61 % 1021,4 hPa 0,0 mm 0,0 km/h 0,0 km/h
21.05.2022 21:10 15,9 C 26,2 C 60 % 1021,4 hPa 0,0 mm 0,0 km/h 0,0 km/h
21.05.2022 21:00 16,1 C 26,2 C 59 % 1021,6 hPa 0,0 mm 0,0 km/h 0,0 km/h
21.05.2022 20:50 16,4 C 26,2 C 58 % 1021,6 hPa 0,0 mm 0,0 km/h 0,0 km/h
21.05.2022 20:40 16,7 C 26,2 C 57 % 1021,9 hPa 0,0 mm 0,0 km/h 0,0 km/h
21.05.2022 20:30 16,8 C 26,2 C 56 % 1021,9 hPa 0,0 mm 0,0 km/h 0,0 km/h
21.05.2022 20:20 17,1 C 26,2 C 56 % 1022,1 hPa 0,0 mm 0,0 km/h 0,0 km/h
21.05.2022 20:10 17,4 C 26,2 C 55 % 1022,1 hPa 0,0 mm 0,0 km/h 0,0 km/h
21.05.2022 20:00 17,6 C 26,2 C 54 % 1022,6 hPa 0,0 mm 0,0 km/h 0,0 km/h
21.05.2022 19:50 17,7 C 26,2 C 53 % 1022,6 hPa 0,0 mm 0,0 km/h 0,0 km/h
21.05.2022 19:40 17,9 C 26,2 C 52 % 1022,4 hPa 0,0 mm 0,0 km/h 0,0 km/h
21.05.2022 19:30 17,9 C 26,2 C 51 % 1022,4 hPa 0,0 mm 0,0 km/h 0,0 km/h
21.05.2022 19:20 18,0 C 26,2 C 51 % 1022,2 hPa 0,0 mm 0,0 km/h 0,0 km/h
21.05.2022 19:10 18,2 C 26,2 C 51 % 1022,2 hPa 0,0 mm 0,0 km/h 0,0 km/h
21.05.2022 19:00 18,4 C 26,2 C 51 % 1022,2 hPa 0,0 mm 0,0 km/h 0,0 km/h
21.05.2022 18:50 18,5 C 26,2 C 51 % 1022,2 hPa 0,0 mm 0,0 km/h 0,0 km/h
21.05.2022 18:40 18,7 C 26,2 C 50 % 1022,1 hPa 0,0 mm 0,0 km/h 0,0 km/h
21.05.2022 18:30 18,6 C 26,2 C 52 % 1022,1 hPa 0,0 mm 0,0 km/h 0,0 km/h
21.05.2022 18:20 18,6 C 26,2 C 52 % 1022,2 hPa 0,0 mm 0,0 km/h 0,0 km/h
21.05.2022 18:10 18,8 C 26,2 C 51 % 1022,2 hPa 0,0 mm 0,0 km/h 0,0 km/h
21.05.2022 18:00 19,0 C 26,2 C 50 % 1021,7 hPa 0,0 mm 0,0 km/h 0,0 km/h
21.05.2022 17:50 18,8 C 26,2 C 49 % 1021,7 hPa 0,0 mm 0,0 km/h 0,0 km/h
21.05.2022 17:40 18,4 C 26,2 C 52 % 1021,5 hPa 0,0 mm 0,0 km/h 0,0 km/h
21.05.2022 17:30 18,4 C 26,2 C 53 % 1021,5 hPa 0,0 mm 0,0 km/h 0,0 km/h
21.05.2022 17:20 18,3 C 26,2 C 54 % 1021,5 hPa 0,0 mm 0,0 km/h 0,0 km/h
21.05.2022 17:10 18,3 C 26,2 C 55 % 1021,5 hPa 0,0 mm 0,0 km/h 0,0 km/h
21.05.2022 17:00 18,4 C 26,2 C 57 % 1022,2 hPa 0,0 mm 0,0 km/h 0,0 km/h
21.05.2022 16:50 18,1 C 26,2 C 58 % 1022,2 hPa 0,0 mm 0,0 km/h 0,0 km/h
21.05.2022 16:40 18,3 C 26,2 C 56 % 1021,6 hPa 0,0 mm 0,0 km/h 0,0 km/h
21.05.2022 16:30 18,2 C 26,2 C 54 % 1021,6 hPa 0,0 mm 0,0 km/h 0,0 km/h
21.05.2022 16:20 18,3 C 26,2 C 55 % 1021,6 hPa 0,0 mm 0,0 km/h 0,0 km/h
21.05.2022 16:10 18,5 C 26,2 C 52 % 1021,6 hPa 0,0 mm 0,0 km/h 0,0 km/h
21.05.2022 16:00 18,4 C 26,2 C 55 % 1021,3 hPa 0,0 mm 0,0 km/h 0,0 km/h
21.05.2022 15:50 18,5 C 26,2 C 56 % 1021,3 hPa 0,0 mm 0,0 km/h 0,0 km/h
21.05.2022 15:40 18,8 C 26,2 C 54 % 1021,5 hPa 0,0 mm 0,0 km/h 0,0 km/h
21.05.2022 15:30 19,2 C 26,2 C 54 % 1021,5 hPa 0,0 mm 0,0 km/h 0,0 km/h
21.05.2022 15:20 19,1 C 26,2 C 54 % 1021,7 hPa 0,0 mm 0,0 km/h 0,0 km/h
21.05.2022 15:10 18,5 C 26,2 C 54 % 1021,7 hPa 0,0 mm 0,0 km/h 0,0 km/h
21.05.2022 15:00 18,8 C 26,2 C 54 % 1021,5 hPa 0,0 mm 0,0 km/h 0,0 km/h
21.05.2022 14:50 18,5 C 26,2 C 57 % 1021,5 hPa 0,0 mm 0,0 km/h 0,0 km/h
21.05.2022 14:40 17,9 C 26,2 C 58 % 1021,8 hPa 0,0 mm 0,0 km/h 0,0 km/h
21.05.2022 14:30 18,6 C 26,2 C 56 % 1021,8 hPa 0,0 mm 0,0 km/h 0,0 km/h
21.05.2022 14:20 18,9 C 26,2 C 55 % 1021,3 hPa 0,0 mm 0,0 km/h 0,0 km/h
21.05.2022 14:10 19,2 C 26,2 C 52 % 1021,3 hPa 0,0 mm 0,0 km/h 0,0 km/h
21.05.2022 14:00 20,2 C 26,2 C 52 % 1021,4 hPa 0,0 mm 0,0 km/h 0,0 km/h
21.05.2022 13:50 19,7 C 26,2 C 51 % 1021,4 hPa 0,0 mm 0,0 km/h 0,0 km/h
21.05.2022 13:40 20,3 C 26,2 C 50 % 1021,1 hPa 0,0 mm 0,0 km/h 0,0 km/h
21.05.2022 13:30 20,7 C 26,2 C 49 % 1021,1 hPa 0,0 mm 0,0 km/h 0,0 km/h
21.05.2022 13:20 20,7 C 26,2 C 49 % 1021,1 hPa 0,0 mm 0,0 km/h 0,0 km/h
21.05.2022 13:10 20,5 C 26,2 C 51 % 1021,1 hPa 0,0 mm 0,0 km/h 0,0 km/h
21.05.2022 13:00 19,9 C 26,2 C 51 % 1021,0 hPa 0,0 mm 0,0 km/h 0,0 km/h
21.05.2022 12:50 19,6 C 26,2 C 53 % 1021,0 hPa 0,0 mm 0,0 km/h 0,0 km/h
21.05.2022 12:40 19,1 C 26,2 C 54 % 1021,2 hPa 0,0 mm 0,0 km/h 0,0 km/h
21.05.2022 12:30 18,3 C 26,2 C 55 % 1021,2 hPa 0,0 mm 0,0 km/h 0,0 km/h
21.05.2022 12:20 18,9 C 26,2 C 54 % 1021,2 hPa 0,0 mm 0,0 km/h 0,0 km/h
21.05.2022 12:10 18,9 C 26,2 C 53 % 1021,2 hPa 0,0 mm 0,0 km/h 0,0 km/h
21.05.2022 12:00 18,6 C 26,2 C 55 % 1020,9 hPa 0,0 mm 0,0 km/h 0,0 km/h
21.05.2022 11:50 18,8 C 26,2 C 55 % 1020,9 hPa 0,0 mm 0,0 km/h 0,0 km/h
21.05.2022 11:40 18,3 C 26,2 C 56 % 1020,8 hPa 0,0 mm 0,0 km/h 0,0 km/h
21.05.2022 11:30 17,8 C 26,2 C 57 % 1020,8 hPa 0,0 mm 0,0 km/h 0,0 km/h
21.05.2022 11:20 17,8 C 26,2 C 58 % 1021,5 hPa 0,0 mm 0,0 km/h 0,0 km/h
21.05.2022 11:10 17,3 C 26,2 C 59 % 1021,5 hPa 0,0 mm 0,0 km/h 0,0 km/h
21.05.2022 11:00 16,9 C 26,2 C 61 % 1021,4 hPa 0,0 mm 0,0 km/h 0,0 km/h
21.05.2022 10:50 16,0 C 26,2 C 63 % 1021,4 hPa 0,0 mm 0,0 km/h 0,0 km/h
21.05.2022 10:40 15,7 C 26,2 C 63 % 1021,6 hPa 0,0 mm 0,0 km/h 0,0 km/h
21.05.2022 10:30 15,4 C 26,2 C 63 % 1021,6 hPa 0,0 mm 0,0 km/h 0,0 km/h
21.05.2022 10:20 15,3 C 26,2 C 64 % 1021,8 hPa 0,0 mm 0,0 km/h 0,0 km/h
21.05.2022 10:10 15,1 C 26,2 C 64 % 1021,8 hPa 0,0 mm 0,0 km/h 0,0 km/h
21.05.2022 10:00 14,9 C 26,2 C 65 % 1021,9 hPa 0,0 mm 0,0 km/h 0,0 km/h
21.05.2022 09:50 14,9 C 26,2 C 66 % 1021,9 hPa 0,0 mm 0,0 km/h 0,0 km/h
21.05.2022 09:40 14,6 C 26,2 C 66 % 1022,4 hPa 0,0 mm 0,0 km/h 0,0 km/h
21.05.2022 09:30 14,5 C 26,2 C 66 % 1022,4 hPa 0,0 mm 0,0 km/h 0,0 km/h
21.05.2022 09:20 14,3 C 26,2 C 67 % 1022,1 hPa 0,0 mm 0,0 km/h 0,0 km/h
21.05.2022 09:10 14,3 C 26,2 C 66 % 1022,1 hPa 0,0 mm 0,0 km/h 0,0 km/h
21.05.2022 09:00 14,3 C 26,2 C 65 % 1022,0 hPa 0,0 mm 0,0 km/h 0,0 km/h
21.05.2022 08:50 14,0 C 26,2 C 66 % 1022,0 hPa 0,0 mm 0,0 km/h 0,0 km/h
21.05.2022 08:40 13,9 C 26,2 C 67 % 1021,9 hPa 0,0 mm 0,0 km/h 0,0 km/h
21.05.2022 08:30 13,8 C 26,2 C 68 % 1021,9 hPa 0,0 mm 0,0 km/h 0,0 km/h
21.05.2022 08:20 13,7 C 26,2 C 68 % 1021,7 hPa 0,0 mm 0,0 km/h 0,0 km/h
21.05.2022 08:10 13,6 C 26,2 C 69 % 1021,7 hPa 0,0 mm 0,0 km/h 0,0 km/h
21.05.2022 08:00 13,7 C 26,2 C 69 % 1021,7 hPa 0,0 mm 0,0 km/h 0,0 km/h
21.05.2022 07:50 13,7 C 26,2 C 69 % 1021,7 hPa 0,0 mm 0,0 km/h 0,0 km/h
21.05.2022 07:40 13,9 C 26,2 C 69 % 1021,3 hPa 0,0 mm 0,0 km/h 0,0 km/h
21.05.2022 07:30 14,0 C 26,2 C 70 % 1021,3 hPa 0,0 mm 0,0 km/h 0,0 km/h
21.05.2022 07:20 13,9 C 26,2 C 70 % 1021,4 hPa 0,0 mm 0,0 km/h 0,0 km/h
21.05.2022 07:10 13,6 C 26,2 C 71 % 1021,4 hPa 0,0 mm 0,0 km/h 0,0 km/h
21.05.2022 07:00 13,6 C 26,2 C 71 % 1020,9 hPa 0,0 mm 0,0 km/h 0,0 km/h
21.05.2022 06:50 13,9 C 26,2 C 72 % 1020,9 hPa 0,0 mm 0,0 km/h 0,0 km/h
21.05.2022 06:40 14,0 C 26,2 C 73 % 1020,7 hPa 0,0 mm 0,0 km/h 0,0 km/h
21.05.2022 06:30 14,1 C 26,2 C 73 % 1020,7 hPa 0,0 mm 0,0 km/h 0,0 km/h
21.05.2022 06:20 14,4 C 26,2 C 75 % 1020,1 hPa 0,0 mm 0,0 km/h 0,0 km/h
21.05.2022 06:10 14,5 C 26,2 C 75 % 1020,1 hPa 0,0 mm 0,0 km/h 0,0 km/h
21.05.2022 06:00 14,5 C 26,2 C 75 % 1020,1 hPa 0,0 mm 0,0 km/h 0,0 km/h
21.05.2022 05:50 14,7 C 26,2 C 75 % 1020,1 hPa 0,0 mm 0,0 km/h 0,0 km/h
21.05.2022 05:40 14,7 C 26,2 C 74 % 1019,8 hPa 0,0 mm 0,0 km/h 0,0 km/h
21.05.2022 05:30 14,8 C 26,2 C 74 % 1019,8 hPa 0,0 mm 0,0 km/h 0,0 km/h
21.05.2022 05:20 14,9 C 26,2 C 74 % 1019,8 hPa 0,0 mm 0,0 km/h 0,0 km/h
21.05.2022 05:10 15,0 C 26,2 C 75 % 1019,8 hPa 0,0 mm 0,0 km/h 0,0 km/h
21.05.2022 05:00 15,2 C 26,2 C 76 % 1019,6 hPa 0,0 mm 0,0 km/h 0,0 km/h
21.05.2022 04:50 15,3 C 26,2 C 76 % 1019,6 hPa 0,0 mm 0,0 km/h 0,0 km/h
21.05.2022 04:40 15,3 C 26,2 C 77 % 1019,6 hPa 0,0 mm 0,0 km/h 0,0 km/h
21.05.2022 04:30 15,5 C 26,2 C 78 % 1019,6 hPa 0,0 mm 0,0 km/h 0,0 km/h
21.05.2022 04:20 15,5 C 26,2 C 79 % 1019,1 hPa 0,0 mm 0,0 km/h 0,0 km/h
21.05.2022 04:10 15,6 C 26,2 C 79 % 1019,1 hPa 0,0 mm 0,0 km/h 0,0 km/h
21.05.2022 04:00 15,9 C 26,2 C 79 % 1018,9 hPa 0,0 mm 0,0 km/h 0,0 km/h
21.05.2022 03:50 16,1 C 26,2 C 78 % 1018,9 hPa 0,0 mm 0,0 km/h 0,0 km/h
21.05.2022 03:40 16,3 C 26,2 C 78 % 1018,9 hPa 0,0 mm 0,0 km/h 0,0 km/h
21.05.2022 03:30 16,7 C 26,2 C 77 % 1018,9 hPa 0,0 mm 0,0 km/h 0,0 km/h
21.05.2022 03:20 17,5 C 26,2 C 78 % 1018,6 hPa 0,0 mm 0,0 km/h 0,0 km/h
21.05.2022 03:10 17,5 C 26,2 C 79 % 1018,6 hPa 0,0 mm 0,0 km/h 0,0 km/h
21.05.2022 03:00 17,8 C 26,2 C 80 % 1017,7 hPa 0,0 mm 0,0 km/h 0,0 km/h
21.05.2022 02:50 17,9 C 26,2 C 81 % 1017,7 hPa 0,0 mm 0,0 km/h 0,0 km/h
21.05.2022 02:40 18,1 C 26,2 C 82 % 1017,3 hPa 0,0 mm 0,0 km/h 0,0 km/h
21.05.2022 02:30 18,1 C 26,2 C 83 % 1017,3 hPa 0,0 mm 0,0 km/h 0,0 km/h
21.05.2022 02:20 18,3 C 26,2 C 84 % 1017,1 hPa 0,0 mm 0,0 km/h 0,0 km/h
21.05.2022 02:10 18,3 C 26,2 C 84 % 1017,1 hPa 0,0 mm 0,0 km/h 0,0 km/h
21.05.2022 02:00 18,3 C 26,2 C 84 % 1016,8 hPa 0,0 mm 0,0 km/h 0,0 km/h
21.05.2022 01:50 18,4 C 26,2 C 84 % 1016,8 hPa 0,0 mm 0,0 km/h 0,0 km/h
21.05.2022 01:40 18,4 C 26,2 C 84 % 1016,5 hPa 0,0 mm 0,0 km/h 0,0 km/h
21.05.2022 01:30 18,4 C 26,2 C 84 % 1016,5 hPa 0,0 mm 0,0 km/h 0,0 km/h
21.05.2022 01:20 18,5 C 26,2 C 84 % 1016,3 hPa 0,0 mm 0,0 km/h 0,0 km/h
21.05.2022 01:10 18,5 C 26,2 C 84 % 1016,3 hPa 0,0 mm 0,0 km/h 0,0 km/h
21.05.2022 01:00 18,5 C 26,2 C 84 % 1016,1 hPa 0,0 mm 0,0 km/h 0,0 km/h
21.05.2022 00:50 18,7 C 26,2 C 84 % 1016,1 hPa 0,0 mm 0,0 km/h 0,0 km/h
21.05.2022 00:40 18,7 C 26,2 C 84 % 1016,1 hPa 0,0 mm 0,0 km/h 0,0 km/h
21.05.2022 00:30 18,7 C 26,2 C 83 % 1016,1 hPa 0,0 mm 0,0 km/h 0,0 km/h
21.05.2022 00:20 19,0 C 26,2 C 81 % 1016,1 hPa 0,0 mm 0,0 km/h 0,0 km/h
21.05.2022 00:10 19,1 C 26,2 C 81 % 1016,1 hPa 0,0 mm 0,0 km/h 0,0 km/h
21.05.2022 00:00 19,4 C 26,2 C 80 % 1015,6 hPa 0,7 mm 0,0 km/h 0,0 km/h
_ Min-Zeit 23:30 23:30 17:50 00:00 - 23:30 23:30
Minimum _ 12,1 C 26,2 C 49 % 1015,6 hPa - 0,0 km/h 0,0 km/h
_ Max-Zeit 13:30 23:30 02:20 20:00 00:00 23:30 23:30
Maximum _ 20,7 C 26,2 C 84 % 1022,6 hPa 0,7 mm 0,0 km/h
O-SO
0,0 km/h
O-SO
Durchschnitt _ 16,8 C 26,2 C 65 % 1020,6 hPa #0,7 mm 0,0 km/h 0,0 km/h
© 2022 Mathias Schreiber